Flag for Syria Weather past 2 weeks in Damascus, Syria

Now
79 °F

Clear.


Feels Like: 79 °F
Forecast: 66 / 104 °F
Wind: No wind

Location: Damascus Int. Airport

Current Time: Aug 4, 2015 at 4:51:29 AM

Latest Report: Aug 4, 2015 at 4:00 AM


Visibility: 10 mi

Pressure: 29.86 "Hg (27.60 "Hg at 689m altitude)

Humidity: 37%

Dew point: 50 °F

Location of DamascusLocation

Historic Weather in Damascus — Graph

°F

Damascus temperature yesterday

Maximum temperature yesterday: 109 °F (at 2:00 PM)
Minimum temperature yesterday: 77 °F (at 5:00 AM)
Average temperature yesterday: 95 °F

Past Weeks' High & Low Weather Summary

 TemperatureHumidityPressure
High109 °F (Aug 2, 4:00 PM)100% (Jul 28, 10:00 PM)29.92 "Hg (Jul 28, 10:00 PM)
Low59 °F (Jul 23, 6:00 AM)6% (Jul 22, 7:00 PM)29.68 "Hg (Jul 20, 3:00 PM)
Average86 °F33%29.80 "Hg
* Reported Jul 20 4:00 AM — Aug 4 4:00 AM, Damascus, Weather by CustomWeather, © 2015

Note: Actual official high and low records may vary slightly from our data, if they occured in-between our weather recording intervals... More about our weather records

Advertising

Damascus weather history for previous 24 hours

 ConditionsComfort  
Time TempWeatherWind HumidityBarometerVisibility
4:00 AM
Tue, Aug 4
79 °FClear.No wind37%29.86 "Hg10 mi
3:00 AM82 °FClear.No wind32%29.86 "Hg10 mi
2:00 AM81 °FClear.No wind34%29.86 "Hg10 mi
1:00 AM86 °FClear.No wind31%29.89 "Hg10 mi
12:00 AM91 °FHot.3 mph26%29.89 "Hg4 mi
11:00 PM
Mon, Aug 3
90 °FHot.3 mph26%29.86 "Hg4 mi
10:00 PM93 °FExtremely hot.1 mph23%29.86 "Hg4 mi
9:00 PM99 °FExtremely hot.5 mph22%29.86 "Hg4 mi
8:00 PM100 °FExtremely hot.2 mph20%29.83 "Hg4 mi
7:00 PM100 °FHaze.9 mph17%29.83 "Hg2 mi
6:00 PM108 °FExtremely hot.No wind15%29.80 "Hg4 mi
5:00 PM109 °FExtremely hot.No wind15%29.80 "Hg4 mi
4:00 PM109 °FExtremely hot.No wind13%29.80 "Hg4 mi
3:00 PM109 °FSunny.No wind14%29.83 "Hg10 mi
2:00 PM109 °FSunny.No wind13%29.83 "Hg10 mi
1:00 PM108 °FSunny.No wind16%29.86 "Hg10 mi
12:00 PM106 °FSunny.No wind18%29.89 "Hg10 mi
11:00 AM102 °FSunny.No wind18%29.89 "Hg10 mi
10:00 AM99 °FSunny.No wind24%29.89 "Hg10 mi
9:00 AM91 °FSunny.No wind30%29.89 "Hg10 mi
8:00 AM84 °FSunny.No wind33%29.89 "Hg10 mi
7:00 AM77 °FSunny.No wind42%29.89 "Hg10 mi
6:00 AM77 °FClear.No wind36%29.89 "Hg10 mi
5:00 AM77 °FClear.No wind28%29.89 "Hg10 mi
4:00 AM82 °FClear.No wind35%29.89 "Hg10 mi
Weather by CustomWeather, © 2015

See weather overviewHow to use our weather pages